Pittsburgh, PA

8:04 AM EDT on April 23, 2018 (GMT -0400)
Pittsburgh International

Weather History for KPIT - October, 2013

Change the Weather History Date:

Wednesday, October 16, 2013

  Actual Average Record
Temperature  
Mean Temperature 62 °F 53 °F  
Max Temperature 65 °F 63 °F 87 °F (1897)
Min Temperature 58 °F 43 °F 25 °F (1876)
Degree Days  
Heating Degree Days 3 13  
Month to date heating degree days 42 166  
Since 1 July heating degree days 151 280  
Cooling Degree Days 0 0  
Month to date cooling degree days 36 6  
Year to date cooling degree days 831 734  
Growing Degree Days 3 (Base 50)    
Moisture  
Dew Point 56 °F    
Average Humidity 86    
Maximum Humidity 93    
Minimum Humidity 78    
Precipitation  
Precipitation 0.29 in 0.06 in 1.15 in (1919)
Month to date precipitation 1.44 1.15  
Year to date precipitation 29.51 30.97  
Snow  
Snow 0.00 in 0.00 in T in (2009)
Month to date snowfall 0.0 0.0  
Since 1 July snowfall 0.0 0.0  
Snow Depth 0.00 in    
Sea Level Pressure  
Sea Level Pressure 29.92 in    
Wind  
Wind Speed 7 mph (SSW)    
Max Wind Speed 16 mph    
Max Gust Speed 24 mph    
Visibility 8 miles    
Events Rain    
T = Trace of Precipitation, MM = Missing Value Source: NWS Daily Summary

Daily Weather History Graph

Daily Weather History Graph

Search for Another Location

Airport or City:

Astronomy

Oct. 16, 2013 Rise Set
Actual Time 7:33 AM EDT 6:38 PM EDT
Civil Twilight 7:05 AM EDT 7:06 PM EDT
Nautical Twilight 6:33 AM EDT 7:38 PM EDT
Astronomical Twilight 6:02 AM EDT 8:09 PM EDT
Moon 5:18 PM EDT (10/16) 4:58 AM EDT (10/16)
Length of Visible Light 12h 00m
Length of Day
11h 05m
Waxing Gibbous, 94% of the Moon is Illuminated
Oct 16
Waxing Gibbous
Oct 18
Full
Oct 26
Last Quarter
Nov 3
New
Nov 10
First Quarter

Hourly Weather History & Observations

Time (EDT) Temp. Windchill Dew Point Humidity Pressure Visibility Wind Dir Wind Speed Gust Speed Precip Events Conditions
12:51 AM 59.0 °F - 55.0 °F 87% 29.99 in 10.0 mi SSE 4.6 mph - N/A   Overcast
1:51 AM 59.0 °F - 54.0 °F 83% 29.99 in 10.0 mi SSE 3.5 mph - N/A   Overcast
2:51 AM 60.1 °F - 54.0 °F 80% 29.98 in 10.0 mi Calm Calm - N/A   Mostly Cloudy
3:51 AM 60.1 °F - 54.0 °F 80% 29.97 in 10.0 mi Calm Calm - N/A   Overcast
4:51 AM 61.0 °F - 54.0 °F 78% 29.97 in 8.0 mi Calm Calm - 0.00 in Rain Light Rain
5:51 AM 60.1 °F - 55.9 °F 86% 29.96 in 7.0 mi Calm Calm - 0.02 in Rain Light Rain
6:14 AM 59.0 °F - 55.4 °F 88% 29.96 in 4.0 mi SSW 5.8 mph - 0.02 in Rain Rain
6:51 AM 57.9 °F - 55.0 °F 90% 29.98 in 5.0 mi South 5.8 mph - 0.10 in Rain Light Rain
7:51 AM 57.9 °F - 55.9 °F 93% 29.97 in 5.0 mi South 4.6 mph - 0.05 in Rain Light Rain
8:51 AM 57.9 °F - 55.9 °F 93% 29.98 in 4.0 mi South 4.6 mph - 0.02 in Rain Light Rain
9:08 AM 57.2 °F - 55.4 °F 94% 29.97 in 5.0 mi South 5.8 mph - 0.01 in Rain Light Rain
9:51 AM 57.9 °F - 55.9 °F 93% 29.98 in 5.0 mi South 5.8 mph - 0.04 in Rain Light Rain
10:19 AM 57.2 °F - 55.4 °F 94% 29.96 in 5.0 mi South 6.9 mph - 0.01 in Rain Light Rain
10:51 AM 57.9 °F - 55.9 °F 93% 29.97 in 5.0 mi South 8.1 mph - 0.02 in Rain Light Rain
11:51 AM 59.0 °F - 57.0 °F 93% 29.96 in 6.0 mi South 8.1 mph - 0.02 in Rain Light Rain
12:51 PM 60.1 °F - 57.9 °F 93% 29.96 in 10.0 mi South 5.8 mph - 0.00 in   Overcast
1:51 PM 62.1 °F - 59.0 °F 90% 29.93 in 7.0 mi South 6.9 mph - 0.00 in Rain Light Rain
1:52 PM 41.0 °F 32.5 °F 35.6 °F 81% 28.99 in 2.0 mi NE 17.3 mph 23.0 mph N/A   Overcast
2:51 PM 64.0 °F - 61.0 °F 90% 29.92 in 10.0 mi South 9.2 mph - 0.00 in   Overcast
3:29 PM 64.4 °F - 60.8 °F 88% 29.90 in 10.0 mi South 8.1 mph - N/A   Overcast
3:51 PM 64.0 °F - 60.1 °F 87% 29.91 in 10.0 mi SSW 9.2 mph - N/A   Overcast
4:28 PM 64.4 °F - 60.8 °F 88% 29.88 in 9.0 mi South 9.2 mph - 0.00 in Rain Light Rain
4:51 PM 64.0 °F - 59.0 °F 84% 29.89 in 10.0 mi SSW 11.5 mph - 0.00 in   Overcast
5:51 PM 64.9 °F - 60.1 °F 84% 29.88 in 10.0 mi SSW 10.4 mph - N/A   Mostly Cloudy
6:51 PM 64.9 °F - 59.0 °F 81% 29.89 in 10.0 mi SSW 11.5 mph - N/A   Overcast
7:51 PM 64.9 °F - 59.0 °F 81% 29.89 in 10.0 mi SSW 11.5 mph - N/A   Overcast
8:51 PM 64.0 °F - 60.1 °F 87% 29.90 in 10.0 mi SSW 10.4 mph 24.2 mph N/A   Overcast
9:51 PM 64.0 °F - 60.1 °F 87% 29.91 in 8.0 mi SW 9.2 mph - 0.00 in   Overcast
10:51 PM 63.0 °F - 57.9 °F 84% 29.92 in 9.0 mi West 12.7 mph - 0.00 in Rain Light Rain
11:51 PM 61.0 °F - 57.9 °F 90% 29.93 in 9.0 mi West 6.9 mph - 0.02 in   Overcast